Location: Allaines
(49.9632°N, 2.9458°E)
Time: 17:22:35
(UTC+00:00)

ARGOS - Pass Details

Date: 09 April 2020
Orbit: 820 x 834 km, 98.5° (Epoch: 28 May)

Event Time Altitude Azimuth Distance (km) Brightness Sun altitude
Rises 19:23:19 0° 166° (SSE) 3,358 6.0 -8.5°
Reaches altitude 10° 19:25:40 10° 168° (SSE) 2,427 5.3 -8.8°
Maximum altitude 19:31:03 81° 255° (WSW) 843 3.3 -9.6°
Drops below altitude 10° 19:36:28 10° 344° (NNW) 2,435 6.2 -10.4°
Sets 19:38:50 0° 345° (NNW) 3,371 7.0 -10.7°
